Orbital Elements at Epoch 2459200.5 (2020-Dec-17.0) TDB
Reference: JPL 20 (heliocentric ecliptic J2000)
Element | Value | Uncertainty (1-sigma) | Units |
e | .2821198703789179 | 3.6556e-08 | |
a | 2.771424923441105 | 1.2589e-08 | au |
q | 1.989550883274998 | 1.0225e-07 | au |
i | 11.05027934430639 | 6.4282e-06 | deg |
node | 288.6972515848456 | 2.2766e-05 | deg |
peri | 113.8129595548493 | 2.6187e-05 | deg |
M | 128.2814782015589 | 1.2659e-05 | deg |
tp | 2458599.997860315588 (2019-Apr-26.49786032) | 5.6935e-05 | TDB |
period | 1685.206417303049 4.61 | 1.1483e-05 3.144e-08 | d yr |
n | .2136236821220587 | 1.4556e-09 | deg/d |
Q | 3.553298963607211 | 1.6141e-08 | au |
|
| | Orbit Determination Parameters
Additional Information
|